Temperature
22 23 22 21 20 20 20 20 20 20 20 20 20 20 20 20 20 19 19 19 19 19 19 19 19 19 19 19 19 20 20 20 20 20 20 20 19 19 18 18 17 17 18
24 24 22 21 21 20 20 20 20 20 20 20 20 20 20 20 20 20 19 19 19 19 19 19 19 19 20 20 20 20 20 20 20 20 20 20 20 19 19 18 18 18 18
24 24 22 21 21 20 20 20 20 20 20 20 20 20 20 20 20 20 20 20 19 19 19 19 20 20 20 20 20 20 20 20 20 19 19 19 19 20 19 19 18 18 18
25 24 23 22 21 21 20 20 20 20 20 20 20 20 20 20 20 20 20 20 20 20 20 20 20 20 20 20 20 20 20 20 20 19 19 18 18 19 19 19 19 19 18
24 24 24 23 22 21 21 20 20 20 20 20 20 20 20 20 20 20 20 20 20 20 20 20 20 20 20 20 20 20 20 20 20 20 19 18 18 19 19 19 19 19 19
23 24 23 23 22 21 21 21 20 20 20 20 20 20 20 20 20 20 20 20 20 20 20 20 20 20 20 20 20 20 20 20 20 20 19 19 19 19 19 19 19 19 19
22 23 23 23 22 22 21 21 21 20 20 20 20 20 20 20 20 20 20 20 20 20 19 19 20 20 20 20 20 20 20 20 20 19 19 19 19 19 18 19 19 19 19
22 23 23 23 22 22 21 21 21 20 20 20 20 20 20 20 20 19 19 19 19 19 19 19 19 19 19 19 19 19 20 20 19 19 19 19 19 18 18 18 18 18 18
23 23 23 23 22 22 22 21 21 21 20 20 20 20 20 20 20 19 19 19 19 19 19 19 19 19 19 19 19 19 19 19 19 19 19 19 19 18 18 18 19 19 18
23 23 23 23 23 22 22 21 21 21 21 20 20 20 20 20 20 19 19 19 19 19 19 19 19 19 19 19 19 19 19 19 19 19 19 19 19 19 18 18 18 19 19
24 22 23 22 23 22 22 22 21 21 21 20 20 20 20 20 19 19 19 19 19 19 19 19 19 19 19 19 19 19 19 19 19 19 19 19 19 19 19 18 18 18 19
25 23 22 21 21 21 20 20 21 21 21 20 20 20 20 19 19 18 19 19 19 19 19 19 19 19 19 19 19 19 18 19 19 18 19 19 19 19 19 19 19 19 18
24 24 23 22 21 21 21 20 20 20 20 20 20 19 19 19 19 19 19 19 19 19 19 19 19 19 19 19 19 18 19 19 19 19 19 19 19 19 19 19 19 19 19
24 24 24 23 21 21 21 21 20 20 20 20 20 19 19 19 19 19 19 19 19 18 18 18 18 18 18 19 19 19 19 19 19 19 19 19 19 19 19 19 19 19 19
23 23 23 22 21 21 21 21 21 20 21 20 20 19 19 19 19 18 19 19 19 19 19 18 19 19 19 19 19 19 19 19 19 19 19 19 19 19 19 19 19 19 19
23 23 23 22 21 21 21 21 20 20 20 20 20 20 19 19 19 19 18 18 19 19 19 19 19 19 19 19 19 19 19 19 19 19 19 19 18 19 19 19 19 19 19
23 23 22 22 21 21 20 20 20 20 20 20 19 19 19 19 18 18 18 18 18 18 18 18 18 18 18 18 18 18 18 18 19 19 19 19 18 18 19 19 19 19 19
24 23 22 22 21 21 20 20 19 20 20 20 20 19 19 19 18 18 18 18 18 18 17 17 18 18 18 18 18 18 18 18 18 19 19 19 19 19 19 19 19 19 19
24 23 22 22 21 21 20 20 20 20 20 20 20 20 19 19 18 18 18 17 17 17 17 17 17 17 17 17 17 17 18 18 18 18 18 19 19 19 19 19 19 19 19
24 23 22 21 21 20 20 20 20 20 20 20 20 20 19 19 18 18 18 17 17 17 16 16 16 16 16 16 16 17 17 18 18 18 18 19 19 19 19 19 19 19 19
23 22 21 21 20 20 20 20 20 20 20 20 20 20 19 19 18 18 18 17 17 16 16 16 16 16 16 16 16 17 17 18 18 19 19 19 19 19 19 19 19 19 19
19 20 20 20 20 20 20 20 20 21 21 20 20 20 19 19 18 18 17 17 17 16 16 16 16 15 16 16 16 16 16 17 18 19 19 19 19 19 19 19 19 19 19
18 18 19 19 19 19 19 20 20 20 20 20 20 20 19 18 18 18 18 18 17 17 16 16 16 15 15 15 15 15 16 17 17 18 19 19 19 19 19 19 19 19 19
18 18 19 19 19 19 19 19 19 19 20 20 20 20 19 19 18 18 18 17 17 17 16 16 15 15 15 15 15 15 15 15 15 16 18 19 19 19 19 19 19 19 18
17 18 18 18 18 18 18 19 19 19 19 19 19 19 19 18 18 17 17 17 17 17 16 15 16 16 15 15 15 15 15 15 15 15 16 17 18 19 19 19 19 19 18
16 16 16 17 17 17 18 18 18 18 18 18 18 18 18 18 18 17 17 17 17 17 16 16 15 15 15 15 15 15 14 14 15 15 15 16 17 18 18 18 18 18 18
Wind_Speed
19 20 22 17 16 16 18 18 17 16 15 14 13 12 12 12 12 12 12 12 12 12 11 11 11 10 10 10 10 10 10 9 9 10 10 11 11 10 9 8 6 13 13
22 22 22 18 17 17 18 18 17 16 15 14 12 11 11 11 11 11 10 10 10 10 10 10 9 9 9 9 9 8 7 6 6 6 8 10 10 9 8 8 10 12 12
22 21 21 19 17 17 17 17 17 16 15 14 12 11 10 10 10 10 9 9 9 8 8 8 8 8 8 7 7 6 5 3 2 3 6 8 11 10 8 8 10 10 10
22 21 20 20 18 18 17 17 16 15 14 13 12 11 10 9 9 9 8 8 8 7 7 7 7 6 6 6 5 5 3 2 4 6 9 9 11 12 10 7 7 7 7
20 20 22 21 19 18 17 16 16 15 14 13 12 11 10 9 8 8 7 6 6 6 5 5 5 5 5 4 4 3 3 4 6 10 12 5 13 14 12 8 6 6 6
20 20 22 21 19 18 17 16 15 14 14 13 12 11 10 9 8 7 7 6 6 5 5 5 5 5 5 5 4 4 5 6 8 11 13 6 14 16 13 10 8 7 7
20 19 22 21 19 17 16 15 14 13 12 12 11 10 9 8 8 8 7 7 7 6 6 6 6 6 7 7 7 8 8 9 10 13 13 6 14 19 16 13 10 10 9
21 19 20 20 19 17 16 14 14 13 12 11 10 10 9 9 8 8 8 9 9 8 8 8 9 9 9 10 10 10 11 12 12 13 14 8 16 21 18 15 13 12 12
21 20 17 18 17 17 16 15 14 13 13 12 11 11 10 10 10 11 11 11 11 11 11 11 11 11 12 12 13 13 14 15 14 13 14 8 19 21 19 17 15 13 14
21 19 17 17 17 16 15 16 15 14 13 13 12 12 12 12 13 14 15 15 15 14 14 13 14 14 14 15 16 16 16 15 15 16 16 11 22 23 20 18 17 15 15
18 19 18 18 16 16 16 17 16 15 14 13 13 14 13 13 14 16 20 19 19 18 17 16 16 16 16 17 20 20 18 14 16 16 17 16 23 24 21 19 18 17 17
14 18 16 18 16 14 14 16 14 14 15 15 14 15 14 13 12 13 13 21 22 22 20 19 18 17 17 15 19 24 16 17 17 15 16 16 23 24 22 20 19 18 18
11 12 15 14 14 12 7 11 9 10 12 15 15 13 13 10 9 11 6 12 17 18 15 16 17 15 15 14 12 12 17 16 14 15 12 16 24 24 22 20 19 19 19
12 11 12 14 12 7 5 6 6 5 5 7 11 14 9 4 4 4 3 2 4 8 7 8 6 11 12 12 10 8 12 12 11 10 9 18 23 23 22 21 20 20 20
13 13 9 11 11 8 3 2 4 3 2 2 2 4 3 3 2 3 3 3 5 5 3 3 4 5 5 6 6 7 7 8 10 10 10 19 23 23 23 22 21 21 21
15 14 12 12 11 9 6 4 2 2 1 1 2 3 2 1 1 2 4 4 4 5 5 4 6 6 6 6 8 8 8 8 8 8 8 13 21 24 24 23 22 22 23
16 14 12 12 13 11 9 8 6 5 4 2 2 3 4 3 3 3 4 5 4 5 5 5 6 6 7 8 8 9 9 8 8 8 10 10 14 24 26 25 25 25 25
16 14 13 14 15 12 8 6 5 5 4 4 4 5 5 4 4 2 4 4 2 4 4 5 6 6 6 6 7 7 8 8 10 9 11 12 12 14 21 27 27 26 26
12 13 12 10 13 12 10 7 6 4 3 3 4 3 5 2 1 1 2 3 3 4 4 6 4 3 5 6 7 8 9 9 9 12 13 12 13 14 15 20 28 28 28
10 11 11 9 10 10 8 6 5 5 5 5 3 4 5 1 2 3 3 5 4 4 5 5 6 6 6 7 10 10 7 9 9 11 13 12 10 14 16 15 18 23 28
5 9 9 8 7 5 5 5 5 4 3 3 3 5 5 2 2 2 4 4 5 5 5 6 6 8 7 7 7 8 9 10 10 10 11 10 12 11 10 11 12 13 16
12 7 6 8 6 4 3 2 2 2 1 1 2 4 4 3 1 3 2 3 5 5 6 7 6 5 6 7 6 8 7 8 7 11 10 11 12 10 10 10 7 9 11
15 14 8 5 3 2 3 2 2 2 1 2 3 4 5 3 2 1 2 4 5 5 6 6 6 7 6 6 6 5 5 5 7 7 8 7 8 8 8 6 6 7 10
10 9 10 8 4 3 1 2 3 3 3 2 1 2 5 5 4 4 4 4 4 5 6 7 6 5 6 7 6 6 7 8 7 7 8 8 7 7 7 6 5 4 5
11 10 10 10 10 9 7 6 5 5 5 4 3 1 3 4 6 6 6 5 4 5 6 6 6 6 6 7 7 7 8 7 8 7 9 8 7 5 3 2 2 1 2
12 11 11 11 11 11 11 9 8 8 8 8 8 7 4 4 5 7 7 5 4 5 6 6 6 7 7 7 7 7 7 7 7 6 8 8 7 6 3 2 1 3 3
Wind_Direction
125 134 136 134 132 131 133 134 134 132 129 127 124 120 115 109 104 99 95 95 99 103 101 95 91 88 87 89 86 83 83 84 87 92 95 95 92 88 84 76 97 103 101
128 134 136 136 135 135 136 136 136 134 133 130 128 125 121 116 111 106 103 101 101 102 101 98 94 92 93 95 95 94 93 96 106 118 124 119 110 98 84 61 62 108 111
127 135 138 138 138 137 137 138 138 137 135 133 131 129 126 122 118 115 111 109 108 107 106 105 103 102 102 104 106 108 109 117 156 178 189 162 131 120 103 85 89 108 115
131 140 143 143 143 142 141 141 141 140 139 137 136 136 134 132 130 126 122 120 118 116 115 114 113 112 113 116 121 127 139 187 246 253 238 214 149 133 125 113 111 117 124
135 141 142 149 148 147 146 146 146 146 145 145 145 145 145 144 143 140 139 138 137 136 136 135 134 134 136 140 148 162 190 233 262 268 267 200 134 143 141 140 141 144 148
137 140 147 152 152 152 152 152 152 152 152 152 153 155 157 159 160 160 162 165 167 169 172 174 174 173 176 182 192 207 225 244 266 264 260 186 142 152 152 158 169 175 178
141 140 150 155 155 156 156 157 157 157 158 159 162 166 170 174 179 182 185 190 195 199 203 206 207 207 207 211 216 222 231 243 256 273 277 225 155 158 161 168 184 196 198
139 141 149 156 158 160 161 163 164 164 166 169 175 180 187 194 200 205 207 209 213 216 219 221 223 223 223 224 227 231 235 244 248 250 255 233 159 163 169 174 187 204 211
140 140 151 159 163 166 169 171 172 174 177 182 188 195 202 209 215 220 223 223 223 223 225 227 230 233 233 234 235 236 237 241 257 270 266 220 168 173 178 183 190 204 216
141 146 157 162 165 170 175 179 180 183 186 192 199 206 213 221 227 229 229 225 226 225 225 228 232 236 238 240 240 240 239 241 247 256 262 237 180 182 185 190 199 208 217
148 151 164 163 167 176 180 180 183 189 196 200 208 215 220 230 233 228 228 225 223 223 224 226 232 236 240 243 241 239 237 237 241 243 248 234 186 186 189 194 202 212 218
155 159 168 165 166 182 186 166 183 192 195 203 212 208 211 228 249 259 229 218 219 221 222 227 231 236 239 244 242 232 228 230 241 246 245 219 189 189 192 197 204 213 220
165 174 166 160 160 183 177 160 186 196 185 196 216 212 204 219 243 262 250 212 216 222 225 231 229 231 233 234 241 224 214 225 230 238 240 192 189 192 194 200 208 216 222
175 190 173 155 157 183 184 178 177 192 177 193 200 208 203 196 235 267 294 291 221 223 223 241 234 227 233 245 240 228 215 222 235 236 222 188 191 195 198 203 210 218 223
179 188 179 150 148 160 187 248 196 200 173 146 118 166 168 170 220 288 318 317 306 297 277 254 280 290 287 288 279 268 259 246 247 242 228 192 194 200 204 207 212 218 223
181 182 172 156 152 159 167 186 277 288 102 124 102 93 83 127 164 276 279 274 273 278 292 298 291 289 284 277 277 279 280 275 269 262 247 209 205 209 210 211 214 218 222
180 175 162 167 161 167 174 183 192 211 198 177 161 184 200 205 193 229 256 258 254 263 267 267 268 265 266 265 262 263 266 263 264 267 261 245 225 219 215 214 215 217 220
178 168 165 175 164 163 164 176 188 209 180 178 190 199 183 182 195 214 256 269 295 285 264 260 251 255 261 266 267 263 259 257 255 254 254 248 241 239 223 219 218 218 219
168 159 164 163 153 158 165 177 201 194 165 193 204 163 131 153 230 238 281 293 286 276 280 290 296 293 290 287 281 265 250 248 247 251 247 243 237 233 231 218 217 218 220
153 149 156 154 143 155 167 179 194 177 179 196 174 126 119 109 11 33 321 329 341 319 305 305 315 306 287 276 279 281 270 255 244 241 243 244 239 235 231 228 215 219 220
133 142 149 145 140 160 173 177 183 174 187 175 159 125 112 97 15 19 302 323 310 292 308 316 310 304 299 287 280 279 268 258 248 238 234 236 238 237 231 226 214 206 212
15 50 97 118 144 184 164 164 147 114 168 167 107 116 147 170 160 279 333 329 310 317 302 281 279 282 288 294 295 296 290 281 267 258 235 226 228 231 232 232 218 214 210
25 26 20 66 118 231 149 195 213 141 219 242 191 176 160 142 155 234 291 285 297 295 290 313 308 291 292 295 288 287 295 293 314 299 297 268 236 224 224 221 220 217 220
43 37 22 19 31 7 354 319 311 282 262 259 219 178 146 160 192 203 226 247 265 281 293 293 303 321 301 292 290 276 268 280 291 300 306 304 289 251 229 216 220 205 207
46 47 38 30 21 6 2 356 334 306 302 305 316 218 161 198 198 203 208 217 244 263 272 279 291 283 282 283 288 292 290 288 271 268 284 293 303 305 293 241 187 125 138
50 48 46 41 35 23 16 6 353 333 322 317 317 311 285 249 217 206 198 196 223 251 271 280 276 274 270 273 276 279 281 280 279 271 270 278 282 283 302 356 54 78 82
Height
1501 1504 1507 1510 1513 1516 1518 1520 1522 1524 1525 1527 1528 1529 1530 1532 1533 1535 1536 1537 1539 1540 1541 1542 1543 1544 1545 1546 1547 1548 1548 1549 1550 1550 1551 1551 1552 1552 1552 1552 1553 1554 1555
1500 1504 1507 1510 1513 1516 1519 1521 1523 1525 1527 1528 1530 1531 1532 1534 1535 1537 1538 1539 1541 1542 1543 1544 1544 1545 1546 1547 1548 1549 1550 1551 1552 1552 1553 1553 1554 1554 1554 1554 1554 1555 1557
1501 1504 1508 1511 1514 1517 1520 1522 1525 1526 1528 1530 1532 1533 1534 1536 1537 1539 1540 1541 1542 1543 1544 1545 1546 1547 1548 1548 1549 1550 1551 1552 1553 1553 1553 1554 1556 1556 1556 1555 1556 1557 1558
1501 1505 1508 1511 1514 1517 1520 1523 1525 1527 1529 1531 1533 1534 1536 1537 1539 1540 1541 1542 1543 1544 1545 1546 1547 1548 1548 1549 1550 1551 1552 1553 1554 1554 1555 1556 1557 1557 1558 1557 1557 1558 1559
1502 1505 1508 1511 1514 1517 1520 1523 1526 1528 1530 1532 1534 1535 1537 1538 1539 1541 1542 1543 1544 1545 1546 1547 1547 1548 1549 1550 1550 1551 1552 1553 1554 1555 1555 1557 1558 1558 1559 1559 1559 1559 1559
1503 1506 1509 1512 1514 1517 1520 1523 1526 1528 1530 1532 1534 1536 1537 1539 1540 1541 1542 1543 1544 1545 1546 1546 1547 1548 1548 1549 1550 1551 1551 1552 1553 1554 1556 1558 1557 1558 1559 1559 1559 1560 1560
1504 1506 1509 1512 1515 1517 1520 1523 1526 1528 1530 1532 1534 1536 1537 1538 1540 1541 1541 1542 1543 1544 1544 1545 1546 1547 1547 1548 1549 1549 1550 1551 1552 1553 1554 1557 1556 1557 1558 1558 1559 1559 1560
1504 1506 1509 1512 1514 1517 1520 1523 1525 1528 1530 1532 1534 1535 1536 1538 1539 1540 1541 1541 1542 1542 1543 1543 1544 1545 1545 1546 1547 1548 1548 1549 1550 1551 1553 1555 1555 1555 1556 1556 1557 1558 1559
1505 1506 1509 1511 1514 1517 1519 1522 1524 1527 1529 1531 1532 1534 1535 1536 1537 1538 1539 1540 1540 1541 1541 1542 1542 1543 1543 1544 1544 1545 1546 1547 1548 1548 1550 1552 1552 1553 1553 1554 1555 1555 1556
1505 1505 1508 1511 1513 1516 1518 1521 1523 1525 1527 1529 1531 1532 1534 1535 1536 1537 1538 1538 1539 1540 1540 1540 1541 1541 1541 1541 1542 1542 1543 1544 1545 1546 1546 1548 1549 1549 1550 1551 1552 1552 1553
1505 1505 1507 1509 1512 1514 1517 1519 1522 1524 1526 1528 1529 1531 1532 1533 1533 1534 1535 1536 1537 1538 1538 1539 1539 1539 1539 1539 1539 1540 1540 1540 1541 1542 1543 1545 1545 1546 1547 1548 1548 1549 1550
1504 1505 1507 1508 1509 1513 1516 1517 1520 1522 1523 1526 1527 1528 1529 1530 1532 1533 1534 1534 1534 1535 1535 1536 1536 1536 1536 1536 1536 1537 1537 1537 1538 1538 1539 1541 1541 1542 1543 1544 1544 1545 1546
1501 1504 1506 1507 1508 1512 1515 1516 1518 1520 1521 1523 1525 1526 1527 1528 1529 1530 1532 1531 1531 1531 1532 1532 1532 1532 1532 1533 1533 1533 1533 1534 1534 1535 1536 1537 1537 1538 1539 1539 1540 1541 1542
1498 1501 1504 1505 1505 1509 1513 1515 1517 1519 1521 1521 1522 1523 1525 1525 1526 1527 1528 1529 1528 1529 1529 1529 1529 1529 1529 1530 1531 1531 1531 1531 1531 1531 1532 1532 1533 1534 1535 1535 1536 1537 1538
1494 1497 1500 1501 1502 1504 1508 1510 1514 1516 1518 1519 1520 1521 1522 1523 1523 1524 1524 1525 1525 1526 1526 1526 1526 1526 1526 1527 1527 1528 1528 1528 1527 1528 1527 1527 1528 1530 1531 1531 1531 1532 1534
1489 1492 1494 1496 1498 1500 1503 1506 1508 1511 1514 1515 1517 1518 1519 1520 1520 1521 1521 1521 1521 1522 1522 1522 1522 1521 1521 1521 1521 1522 1523 1523 1523 1522 1522 1522 1522 1524 1526 1527 1527 1528 1529
1485 1488 1490 1492 1495 1497 1500 1503 1506 1508 1510 1512 1514 1515 1516 1517 1517 1518 1518 1518 1518 1518 1517 1517 1517 1517 1516 1516 1516 1516 1516 1516 1516 1516 1516 1516 1517 1518 1519 1521 1522 1523 1524
1481 1483 1486 1490 1492 1495 1498 1500 1504 1506 1508 1509 1511 1512 1513 1514 1514 1515 1515 1515 1515 1514 1514 1514 1513 1513 1512 1511 1511 1511 1510 1510 1509 1509 1509 1509 1511 1512 1514 1514 1515 1517 1519
1477 1479 1483 1488 1490 1493 1496 1498 1501 1503 1505 1507 1509 1510 1510 1511 1512 1512 1512 1513 1512 1512 1512 1511 1511 1509 1508 1507 1506 1506 1505 1504 1503 1503 1502 1503 1504 1505 1507 1508 1509 1511 1513
1475 1476 1479 1485 1489 1491 1494 1497 1500 1502 1503 1505 1507 1508 1508 1509 1510 1509 1509 1509 1509 1508 1508 1508 1507 1506 1505 1504 1503 1502 1500 1499 1498 1497 1497 1497 1498 1499 1501 1502 1503 1504 1507
1472 1470 1475 1481 1487 1491 1493 1495 1498 1500 1501 1503 1505 1505 1506 1506 1507 1506 1506 1505 1505 1504 1504 1504 1503 1502 1501 1500 1499 1497 1495 1494 1493 1492 1492 1492 1493 1494 1495 1496 1497 1498 1500
1471 1466 1469 1477 1485 1491 1493 1495 1496 1498 1500 1501 1502 1502 1503 1503 1503 1503 1503 1502 1501 1501 1500 1500 1499 1498 1496 1497 1496 1494 1491 1490 1488 1488 1487 1486 1487 1489 1490 1491 1492 1493 1493
1471 1468 1474 1477 1485 1490 1493 1495 1496 1497 1498 1499 1499 1499 1499 1500 1500 1500 1499 1498 1498 1497 1496 1496 1496 1494 1493 1492 1492 1493 1490 1486 1485 1483 1482 1482 1482 1483 1483 1486 1486 1487 1487
1476 1478 1481 1485 1487 1489 1491 1493 1494 1495 1496 1497 1497 1497 1496 1496 1496 1496 1496 1495 1494 1494 1493 1492 1493 1491 1490 1488 1488 1488 1488 1486 1485 1480 1478 1478 1478 1478 1479 1481 1483 1483 1482
1483 1483 1483 1485 1487 1488 1489 1491 1491 1493 1493 1493 1493 1494 1494 1493 1493 1493 1493 1492 1491 1491 1490 1489 1488 1487 1486 1484 1483 1483 1482 1481 1481 1480 1476 1475 1475 1475 1475 1476 1477 1479 1479
1485 1484 1484 1485 1486 1486 1486 1487 1488 1489 1489 1489 1489 1490 1491 1491 1491 1490 1489 1488 1488 1487 1486 1486 1484 1483 1482 1480 1479 1478 1477 1477 1476 1476 1474 1473 1472 1473 1472 1473 1472 1474 1475